RH
96 97 99 99 99 87 85 80 81 78 82 70 60 58 56 52 49 49 67 78 80 78 88 84 89 81 81 83 81 79 72 75 69 78 73 75 72 77 87 79 85 79 80
84 92 97 98 98 99 87 84 80 84 88 73 67 64 59 57 54 54 63 80 80 78 77 88 96 92 87 86 88 77 72 69 73 79 69 75 72 73 83 79 87 76 77
43 60 85 95 98 98 100 89 86 85 82 73 70 65 60 59 57 58 60 72 80 78 77 79 92 96 92 90 92 90 86 89 74 84 70 78 77 75 79 85 87 76 82
36 32 44 80 89 97 99 100 93 95 89 78 64 58 58 60 59 57 64 69 81 84 77 73 77 85 91 95 87 85 92 95 75 73 71 86 84 78 82 80 83 79 80
48 48 46 42 78 90 99 97 100 99 94 82 73 64 57 54 60 60 64 71 73 78 84 78 73 75 81 85 86 86 85 94 89 78 74 74 86 87 81 77 79 84 83
51 55 56 48 36 57 86 99 98 100 100 92 77 68 63 58 53 59 68 70 76 79 74 73 67 64 76 82 86 92 87 89 92 76 81 89 74 88 81 80 82 83 83
51 54 54 61 67 68 76 96 99 100 97 100 92 86 71 63 59 56 60 71 78 79 79 70 66 66 69 80 85 89 90 93 92 88 89 80 78 81 84 85 85 84 85
51 51 56 60 62 67 66 64 77 85 96 100 96 95 98 89 69 62 59 66 76 81 76 71 65 65 70 78 82 87 94 89 89 91 86 80 80 87 86 86 86 85 79
51 55 57 60 62 68 74 75 79 96 100 92 99 95 99 96 83 69 67 63 69 78 84 72 68 65 70 81 85 81 91 90 88 86 82 85 86 86 84 81 85 87 83
51 55 58 61 64 66 69 75 69 84 96 99 96 100 97 86 95 87 68 68 68 72 79 82 73 71 72 80 88 79 87 96 84 87 83 83 88 85 87 83 85 80 84
52 55 58 61 62 66 68 70 76 78 82 88 98 100 99 100 99 95 79 69 68 69 70 73 76 75 77 78 89 84 86 91 85 87 86 83 84 86 82 83 82 81 82
53 54 56 60 62 62 64 68 70 73 77 84 89 87 96 99 98 96 91 67 66 69 70 67 70 72 73 77 88 88 85 85 87 84 88 86 83 85 79 78 79 87 90
56 55 58 61 61 62 64 66 68 72 76 80 85 87 90 95 100 100 94 87 74 60 70 70 67 69 76 76 82 90 79 79 86 85 85 87 84 80 81 79 82 89 92
59 58 60 60 62 64 65 65 67 71 72 73 78 83 87 88 92 100 100 91 92 73 60 63 69 74 79 80 82 89 90 76 86 87 83 85 87 82 80 80 80 87 84
60 58 62 64 65 65 65 65 66 69 68 70 73 77 83 83 83 87 99 100 90 91 73 58 68 73 78 86 86 91 99 85 84 87 87 81 86 87 83 79 82 80 83
63 65 66 66 67 67 67 66 65 66 66 66 68 70 72 75 80 87 94 98 100 97 89 60 61 70 78 89 93 91 90 98 81 84 88 86 84 85 86 83 82 80 79
66 68 69 69 69 68 68 67 67 66 65 64 63 64 66 67 70 73 78 78 100 100 94 81 63 68 78 86 93 96 91 97 99 86 83 86 87 82 82 85 84 84 82
69 70 72 72 72 71 71 71 71 69 67 66 65 64 64 63 64 67 73 86 93 95 98 86 73 75 78 88 92 97 93 95 99 99 92 85 84 89 86 81 80 86 88
74 74 72 73 76 78 78 77 77 75 71 69 68 67 67 66 66 68 69 73 75 80 98 93 84 81 86 86 94 93 98 98 99 96 97 91 88 89 89 88 82 77 80
78 78 76 76 76 79 82 83 80 78 78 75 72 72 72 72 70 70 72 72 74 80 83 98 94 86 92 94 96 96 98 99 98 98 100 97 97 94 91 94 87 85 83
82 81 81 80 79 79 81 82 84 83 83 85 80 77 76 77 76 76 76 76 75 72 76 90 95 91 87 91 94 93 88 94 99 99 100 100 99 97 99 99 91 90 88
85 85 83 82 82 80 76 77 84 96 97 92 93 85 80 75 76 75 77 78 80 85 82 82 92 93 89 86 85 87 89 90 97 99 98 99 98 100 100 98 92 93 87
89 88 87 84 83 86 77 77 81 92 98 98 90 90 86 77 72 73 74 75 78 82 86 83 84 95 87 87 79 85 84 88 84 84 99 98 100 100 100 90 85 98 91
96 94 90 90 85 82 77 77 83 95 98 94 88 80 80 83 80 74 74 77 78 78 78 85 81 72 89 96 84 83 84 88 83 80 87 95 98 99 100 95 90 100 100
98 95 92 89 87 87 78 78 83 93 96 86 83 72 72 74 72 72 75 76 77 77 76 74 74 66 62 77 99 90 98 98 95 96 100 90 95 99 100 100 99 100 98
99 96 92 90 87 85 79 79 80 96 95 92 75 72 71 66 66 74 79 81 74 74 76 75 73 76 66 62 79 98 92 95 91 94 99 96 87 97 100 99 99 99 100
Wind_Speed
17 16 14 16 18 24 20 18 18 17 19 20 18 18 18 17 17 16 15 19 19 16 16 19 18 15 14 13 15 16 16 13 13 15 13 11 12 12 13 12 12 11 11
20 18 17 15 19 19 27 25 21 19 22 25 22 20 19 20 18 19 14 17 22 19 18 20 19 18 18 17 17 19 18 17 16 16 14 15 13 13 14 13 13 12 11
24 23 21 17 19 21 18 30 24 19 19 22 22 23 21 22 22 21 21 18 23 22 21 20 22 21 21 19 18 18 19 19 19 17 15 16 15 15 14 13 14 13 12
26 27 26 23 21 22 18 23 30 26 27 25 23 24 23 22 23 23 23 23 20 22 26 23 22 23 23 23 21 20 19 21 22 20 18 16 17 16 15 15 14 13 12
25 26 27 27 25 24 22 19 15 30 27 26 25 25 23 22 23 24 22 25 22 24 24 26 24 23 25 26 24 23 22 22 23 23 20 20 19 18 17 16 14 14 13
23 24 25 27 26 26 26 25 20 20 22 29 26 24 23 23 23 24 25 24 28 24 24 23 23 24 26 26 29 26 24 25 25 24 22 23 20 19 18 17 16 16 14
25 24 26 25 24 24 25 23 21 26 17 16 17 18 21 22 22 24 25 25 25 26 27 25 21 19 23 29 30 30 28 27 25 25 24 23 22 22 18 19 18 17 15
24 23 24 26 25 25 25 23 24 26 20 16 16 10 2 9 20 23 26 28 27 27 28 28 25 25 22 24 32 33 31 30 27 26 26 24 24 22 21 21 19 18 17
23 23 23 24 24 23 22 21 21 14 14 30 16 6 3 4 9 23 29 29 29 28 29 30 29 28 26 26 27 34 35 32 30 28 26 26 25 23 23 21 21 19 19
22 22 23 23 23 23 23 20 17 17 15 19 27 14 18 10 4 3 26 32 32 31 30 30 31 31 29 28 28 32 37 36 32 29 28 27 27 26 24 23 23 22 21
22 22 21 22 24 24 23 24 22 18 17 19 17 18 21 22 20 8 6 17 28 32 32 33 33 31 32 30 29 33 38 39 36 32 30 28 28 28 26 25 25 24 23
25 23 23 23 24 24 24 25 25 24 21 20 22 22 20 11 9 12 6 12 18 27 33 33 32 32 32 32 31 34 38 40 40 37 32 30 30 30 29 28 27 26 25
26 27 25 26 26 26 28 28 27 26 25 22 22 24 23 26 26 23 19 12 9 20 24 33 34 34 33 34 33 35 37 40 43 40 38 33 33 33 32 30 29 28 27
26 27 29 28 29 29 28 28 28 27 27 25 24 24 26 26 24 29 20 21 9 13 24 24 32 32 33 33 33 36 39 41 44 44 42 37 36 36 35 34 32 31 30
27 29 30 31 31 31 30 29 29 29 28 28 27 26 26 26 25 26 33 21 22 10 12 24 19 35 33 33 35 33 39 42 44 46 45 43 39 39 38 37 37 35 34
28 30 31 32 32 32 31 30 30 30 30 29 27 27 26 26 25 25 24 32 23 19 10 25 27 25 33 32 35 40 38 39 44 48 48 47 43 42 41 41 40 38 36
29 31 31 32 33 33 32 32 32 32 32 32 30 30 30 27 29 28 27 25 32 31 18 28 22 29 28 33 31 38 40 41 41 46 50 50 48 46 45 44 42 41 40
30 31 32 32 33 33 34 33 33 32 33 32 32 31 31 28 29 28 26 26 24 30 28 24 29 26 34 33 35 35 38 38 40 41 48 52 51 50 48 48 45 44 43
32 32 32 33 33 33 34 35 34 34 34 34 33 32 32 30 30 28 28 28 28 29 27 32 26 27 33 29 31 33 35 38 34 39 41 50 54 54 51 50 48 48 47
32 33 33 34 34 34 34 36 35 34 34 35 34 34 33 32 32 30 30 29 27 25 31 31 28 22 25 33 32 30 29 33 34 36 39 40 49 53 53 53 51 51 50
32 34 34 35 35 34 33 33 34 34 33 34 35 36 36 37 37 36 34 32 27 27 25 30 27 30 24 20 30 27 30 28 32 35 36 38 41 44 51 54 53 54 55
32 33 33 34 36 35 35 36 37 36 35 34 34 36 37 38 39 39 41 42 40 34 31 24 24 19 30 34 35 35 29 19 8 31 31 32 37 36 41 47 53 57 58
33 34 34 34 36 36 36 36 36 37 34 35 36 35 37 38 39 38 38 39 41 44 47 43 33 36 30 40 39 33 34 33 25 25 35 28 32 37 37 44 48 51 58
33 34 35 33 35 35 35 36 36 36 35 35 38 40 39 39 39 39 37 36 37 38 40 44 49 52 49 30 45 45 42 38 35 30 36 18 30 31 33 39 43 47 48
33 35 34 34 34 35 35 36 36 35 34 37 36 39 41 40 41 42 41 40 39 43 39 41 46 48 53 56 38 36 30 26 16 22 36 27 23 27 29 36 41 42 44
34 34 35 34 34 35 35 35 34 33 33 33 37 39 41 44 45 43 42 39 38 45 36 36 44 44 55 55 57 45 40 29 22 13 28 30 24 21 7 30 32 36 36
Wind_Direction
346 332 314 295 271 244 230 225 224 229 230 231 238 245 244 237 234 236 217 227 211 206 213 197 193 197 194 191 190 189 190 187 192 181 180 172 178 160 153 152 147 147 141
356 345 330 306 293 276 247 230 223 225 230 228 234 243 243 244 241 232 226 221 219 208 218 202 198 194 195 194 193 187 190 197 196 185 189 185 178 181 166 168 151 157 151
356 351 343 334 319 286 291 245 230 224 226 231 238 239 239 241 237 235 234 231 221 214 217 216 205 202 198 197 196 196 195 190 192 186 189 183 178 178 176 178 162 170 160
353 348 344 340 338 325 306 261 233 220 226 232 231 234 233 236 241 235 230 233 224 214 217 217 217 213 204 201 201 201 196 193 194 198 197 189 185 185 188 183 177 177 172
351 347 346 344 336 332 334 331 258 227 221 215 217 229 228 230 235 237 230 230 226 220 216 221 221 220 222 210 205 204 201 198 196 194 197 200 195 185 189 189 188 183 182
345 343 341 339 342 336 332 327 340 311 243 219 223 225 224 223 230 232 234 234 228 221 219 216 224 225 224 222 210 205 203 200 201 207 202 192 202 196 194 197 192 190 189
341 340 337 338 340 339 331 339 331 332 305 258 208 238 242 227 223 232 232 231 228 223 219 222 216 226 230 225 222 213 204 200 201 203 196 201 203 203 201 198 198 197 191
337 335 333 332 335 333 334 338 331 332 325 258 212 188 200 248 233 227 231 229 228 224 218 219 220 221 222 227 222 221 207 203 202 202 202 208 206 204 205 201 202 201 202
332 330 328 326 326 328 327 327 336 342 319 304 314 202 169 212 203 224 225 227 226 222 222 219 217 220 220 222 226 218 214 207 201 200 205 206 205 205 205 206 206 205 206
326 325 324 322 320 320 318 319 318 318 317 301 318 290 263 164 192 243 222 221 222 223 219 218 219 218 218 220 224 220 212 209 207 202 205 208 207 208 207 208 207 208 208
322 320 320 318 316 315 312 312 313 309 302 295 293 306 307 276 216 223 233 211 218 222 223 219 218 220 220 219 215 221 216 209 212 205 206 207 209 208 209 210 211 210 212
318 316 315 314 311 309 308 307 306 302 298 293 292 292 286 287 278 230 223 226 213 217 220 223 219 218 219 218 215 219 216 215 212 213 207 208 209 209 210 211 213 212 212
313 311 311 310 307 305 303 302 299 296 295 289 286 284 279 272 277 283 223 238 261 218 214 221 221 219 215 215 216 216 218 217 216 215 210 210 212 212 211 212 214 213 215
303 305 305 304 302 301 299 297 294 291 290 287 282 279 278 277 279 275 276 231 227 236 222 211 215 215 213 214 216 214 217 218 216 216 217 211 213 216 214 215 216 217 219
300 300 300 300 299 297 295 294 291 290 287 285 283 281 278 278 278 278 268 262 226 219 234 211 201 213 214 214 215 215 212 218 219 219 219 218 213 219 219 217 219 220 222
299 298 297 296 296 295 292 291 288 288 286 283 281 279 277 278 278 275 276 268 249 238 235 223 217 207 210 214 215 216 220 220 222 220 221 222 221 218 222 224 224 224 224
298 297 295 294 293 292 290 288 285 285 282 282 280 276 275 275 275 273 274 271 270 239 230 243 233 215 210 210 216 220 218 220 222 223 223 223 223 222 222 226 228 229 228
298 295 293 291 289 288 288 285 284 282 281 282 281 279 276 276 273 274 271 267 269 267 234 235 228 217 215 208 211 214 218 219 221 226 225 225 225 224 225 226 228 231 233
297 295 293 290 287 285 283 283 282 281 279 278 278 277 277 274 272 270 271 269 266 269 283 228 233 213 214 208 211 211 216 218 223 225 229 228 226 228 227 228 229 232 234
297 294 292 289 287 284 280 278 279 280 276 275 276 275 274 272 270 269 269 268 271 265 260 276 224 219 212 205 206 207 209 214 217 222 224 228 227 229 231 231 233 234 237
297 294 292 289 287 284 279 275 273 275 275 272 271 270 270 269 268 266 265 265 267 264 264 260 241 220 211 202 205 206 210 205 213 214 217 224 224 229 235 233 236 236 238
298 295 293 290 289 284 282 279 275 274 276 274 271 271 270 270 267 265 262 260 258 260 263 260 274 233 214 210 208 204 208 200 199 211 211 217 217 220 224 229 234 235 236
299 297 293 292 287 286 287 283 279 277 275 274 273 269 269 267 268 265 264 262 259 254 250 253 260 259 238 212 208 206 207 208 212 208 203 214 214 219 221 229 237 238 237
300 298 296 291 293 289 290 289 286 283 278 274 272 274 269 265 263 263 262 262 260 257 252 248 244 249 252 253 210 207 207 212 220 215 205 210 209 219 219 229 236 234 237
300 298 298 298 295 293 294 291 289 285 278 275 272 274 270 269 265 263 259 258 258 259 256 254 251 248 248 250 244 210 208 209 212 209 203 210 205 209 214 223 228 233 235
297 303 301 297 296 297 295 294 291 285 281 278 281 277 270 270 269 263 259 256 255 253 254 257 256 254 246 246 246 221 206 207 211 201 198 199 194 182 191 220 224 232 228